Location: Baggettsville
(36.4767°N, 86.7303°W)
Time: 14:21:44
(UTC+00:00)

X-37B - Visible Passes

Search period start: 20 September 2021 00:00
Search period end: 30 September 2021 00:00
Orbit: 381 x 393 km, 45.0° (Epoch: 29 August)

Date Brightness Start Highest point End Pass type
(mag) Time Alt. Az. Time Alt. Az. Time Alt. Az.
20 Sep 2.5 09:50:37 22° SSE 09:50:51 22° SE 09:53:23 10° E visible
21 Sep 0.5 10:27:29 30° WSW 10:28:55 87° NNW 10:32:05 10° ENE visible
22 Sep 2.8 09:31:58 26° E 09:31:58 26° E 09:33:37 10° ENE visible
22 Sep 1.9 11:04:29 10° W 11:07:18 29° NNW 11:10:08 10° NE visible
23 Sep 1.0 10:08:40 46° NNW 10:08:48 46° NNW 10:11:52 10° NE visible
24 Sep 3.9 09:13:02 14° ENE 09:13:02 14° ENE 09:13:33 10° ENE visible
24 Sep 2.4 10:45:19 13° WNW 10:47:20 22° NNW 10:49:52 10° NE visible
25 Sep 2.4 09:49:38 25° NNE 09:49:38 25° NNE 09:51:36 10° NE visible
26 Sep 2.7 10:26:12 15° NW 10:27:25 18° N 10:29:42 10° NE visible
27 Sep 3.5 09:30:29 15° NNE 09:30:29 15° NNE 09:31:20 10° NE visible
27 Sep 2.9 11:03:56 10° NW 11:06:11 18° N 11:08:26 10° NE visible
28 Sep 2.8 10:07:03 16° NNW 10:07:32 17° N 10:09:42 10° NE visible
29 Sep 2.7 10:43:48 10° NW 10:46:16 21° NNE 10:48:46 10° ENE visible
